Regional Weather Roundup
Issued by NWS

Home | Current Version | Previous Version | Graphics & Text | Print | Product List | Glossary On
Versions: 1 2 3 4 5 6 7 8 9 10 11 12 13 14 15 16 17 18 19 20 21 22 23 24 25 26 27 28 29 30 31 32 33 34 35 36 37 38 39 40 41 42 43 44 45 46 47 48 49 50
000
ASUS43 KDMX 301007
RWRIA

WEATHER ROUNDUP FOR IOWA
NATIONAL WEATHER SERVICE DES MOINES IA
500 AM CDT WED JUL 30 2014

NOTE: "FAIR" INDICATES FEW OR NO CLOUDS BELOW 12,000 FEET WITH NO
SIGNIFICANT WEATHER AND/OR OBSTRUCTIONS TO VISIBILITY.

* - THESE STATIONS ARE NOT NWS STATIONS...THUS NOT UNDER NWS
QUALITY CONTROL.  THEY ALSO DO NOT REPORT WEATHER SUCH
AS PRECIPITATION OR FOG.

IAZ001>003-012>014-020>022-031>034-043>046-301100-
   NORTHWEST IOWA

CITY           SKY/WX    TMP DP  RH WIND       PRES   REMARKS
CARROLL *      PTCLDY    52  50  93 W6        30.11S
CHEROKEE *     CLEAR     54  54 100 CALM      30.13S
DENISON *      CLEAR     52  52 100 CALM      30.11S
LE MARS *      CLEAR     50  50 100 CALM      30.14S FOG
ORANGE CITY *  CLEAR     57  52  82 N3        30.14S
SHELDON *      CLEAR     48  48 100 CALM      30.13S
SIOUX CITY     CLEAR     52  51  97 W3        30.14R
SPENCER        CLEAR     49  48  97 NW5       30.13S
STORM LAKE *   CLEAR     57  55  94 NW6       30.13S
$$

IAZ055>058-069>071-079>083-090>094-301100-
   SOUTHWEST IOWA

CITY           SKY/WX    TMP DP  RH WIND       PRES   REMARKS
ATLANTIC *     CLEAR     52  50  93 CALM      30.12R
AUDUBON *      CLEAR     52  48  87 CALM      30.13S
CLARINDA *     CLEAR     50  50 100 CALM      30.13S
COUNCIL BLFS * CLOUDY    59  57  94 N6        30.12R
CRESTON *      CLEAR     57  54  88 NW5       30.11S
HARLAN  *      CLEAR     50  50 100 CALM      30.16R
LAMONI         CLEAR     57  53  86 NW5       30.10S
RED OAK *      CLEAR     54  52  94 CALM      30.12S
SHENANDOAH *   FOG       52  52 100 CALM      30.13R VSB 1/4
$$

IAZ047>049-059>061-072>074-084-301100-
   CENTRAL IOWA

CITY           SKY/WX    TMP DP  RH WIND       PRES   REMARKS
AMES           CLEAR     56  54  93 CALM      30.09S
ANKENY *       CLEAR     54  54 100 CALM      30.09S
CHARITON *     CLEAR     55  54  94 NW5       30.09S
DES MOINES     CLEAR     60  55  83 NW3       30.09R
GRINNELL*      CLEAR     55  54  94 NW5       30.09R
KNOXVILLE *    CLEAR     55  54  94 W7        30.07S
MARSHALLTOWN   CLEAR     54  53  97 W5        30.07F
PELLA *        CLEAR     57  55  94 CALM      30.09S
PERRY *          N/A     54  54 100 W3        30.11R
$$

IAZ004>006-015-016-023>025-035-036-301100-
   NORTH CENTRAL IOWA

CITY           SKY/WX    TMP DP  RH WIND       PRES   REMARKS
ALGONA *       PTCLDY    57  54  88 NW8       30.11S
CLARION *      CLEAR     52  52 100 CALM      30.10S
ESTHERVILLE    CLEAR     55  53  93 NW7       30.11S
FORT DODGE *   CLEAR     54  52  94 NW6       30.10F
MASON CITY     CLEAR     53  52  96 NW8       30.10S
FOREST CITY *  CLEAR     55  54  94 CALM      30.10S
IOWA FALLS *     N/A     55  54  94 W5        30.09F
$$

IAZ007>011-017>019-026>030-037>042-050>054-066-301100-
   NORTHEAST IOWA

CITY           SKY/WX    TMP DP  RH WIND       PRES   REMARKS
CEDAR RAPIDS   CLEAR     55  50  83 CALM      30.06S
CHARLES CITY * CLEAR     55  54  94 NW5       30.07F
CLINTON *      CLOUDY    57  55  94 N6        30.07S
DECORAH *      CLEAR     59  57  94 NW5       30.05S
DUBUQUE        CLOUDY    59  57  93 CALM      30.05S
MONTICELLO *   CLOUDY    55  55 100 CALM      30.05S
OELWEIN *      MOCLDY    55  55 100 NW5       30.06F
WATERLOO       CLEAR     56  54  93 W5        30.06S
$$

IAZ064-065-067-068-078-301100-
   EAST CENTRAL IOWA

CITY           SKY/WX    TMP DP  RH WIND       PRES   REMARKS
DAVENPORT      CLEAR     55  53  93 W5        30.05S
IOWA CITY      CLEAR     59  56  89 CALM      30.07F
MT. PLEASANT * CLEAR     57  57 100 W3        30.07S
MUSCATINE *    CLEAR     59  55  88 CALM      30.05F
QUAD CITIES    CLEAR     57  55  93 SW5       30.04S
$$

IAZ062-063-075>077-085>089-095>099-301100-
   SOUTHEAST IOWA

CITY           SKY/WX    TMP DP  RH WIND       PRES   REMARKS
BURLINGTON     CLEAR     57  55  93 CALM      30.06S
FAIRFIELD *    CLEAR     57  55  94 W6        30.07S
FORT MADISON * CLEAR     61  57  88 W3        30.07S
KEOKUK *       CLEAR     57  57 100 SW3       30.06S
OSKALOOSA *      N/A     55  55 100 W3        30.08S
CENTERVILLE *  CLEAR     54  54 100 W5        30.10S
OTTUMWA        CLEAR     56  54  93 W5        30.07S
WASHINGTON *   CLEAR     55  55 100 CALM      30.07S
$$

ABBREVIATIONS USED IN REMARKS
   TC - TEMPERATURES IN CELSIUS
  WCI - WIND CHILL INDEX
   HX - HEAT INDEX
  VSB - VISIBILITY
$$



USA.gov is the U.S. government's official web portal to all federal, state and local government web resources and services.